Regional Weather Roundup
Issued by NWS

Home | Current Version | Previous Version | Text Only | Print | Product List | Glossary Off
Versions: 1 2 3 4 5 6 7 8 9 10 11 12 13 14 15 16 17 18 19 20 21 22 23 24 25 26 27 28 29 30 31 32 33 34 35 36 37 38 39 40 41 42 43 44 45 46 47 48 49 50

000
ASUS45 KCYS 240210
RWRWY

WYOMING REGIONAL WEATHER ROUNDUP
NATIONAL WEATHER SERVICE CHEYENNE WY
800 PM MDT MON MAY 23 2016

NOTE:  "FAIR" INDICATES FEW OR NO CLOUDS BELOW 12,000 FEET
WITH NO SIGNIFICANT WEATHER AND/OR OBSTRUCTIONS TO VISIBILITY.

WYZ001-240300-
YELLOWSTONE NATIONAL PARK

CITY           SKY/WX    TMP DP  RH WIND       PRES   REMARKS
LK YELLOWSTONE   N/A     40  24  53 VRB6      29.94S
W YELLOWSTONE  NOT AVBL

$$
WYZ002>013-054>058-071-098>099-240300-
NORTHERN WYOMING

CITY           SKY/WX    TMP DP  RH WIND       PRES   REMARKS
JACKSON        PTCLDY    48  25  40 SW9       29.90S
CODY           FAIR      57  27  30 W8        29.82S
GREYBULL       FAIR      63  26  24 NW9       29.79R
WORLAND        FAIR      58  29  33 N6        29.79R
SHERIDAN       FAIR      53  38  56 N8        29.82R
BUFFALO        FAIR      56  36  47 N10       29.84R
GILLETTE       FAIR      53  32  44 NW9       29.80R
HULETT         FAIR      63  28  27 NW9       29.79R
NEWCASTLE      FAIR      63  18  17 SW7       29.79R

$$
WYZ014>020-022>026-101>103-240300-
CENTRAL WYOMING

CITY           SKY/WX    TMP DP  RH WIND       PRES   REMARKS
BIG PINEY      FAIR      48  27  44 NW9       29.94S
PINEDALE       FAIR      46  28  49 NW13      29.95S
DUBOIS         FAIR      48  21  34 NW8G20    29.90R
LANDER         FAIR      59  23  25 W3        29.83R
RIVERTON       FAIR      59  22  24 W8        29.85R
CASPER         FAIR      55  29  36 W8        29.86S
DOUGLAS        FAIR      54  34  46 W12       29.87R

$$
WYZ021-027>030-104>119-240300-
SOUTHERN WYOMING

CITY           SKY/WX    TMP DP  RH WIND       PRES   REMARKS
EVANSTON       FAIR      52  26  36 W7        29.93S
KEMMERER         N/A     50  25  37 W8        29.95S
FORT BRIDGER   CLEAR     50  36  57 S6        29.96S
ROCK SPRINGS   FAIR      52  30  43 SW8       29.94S
DIXON          MOCLDY    55  32  40 N13       29.95R
RAWLINS        FAIR      51  28  41 W9        29.95R
SARATOGA       FAIR      52  32  46 NW14G22   29.96R
LARAMIE        FAIR      53  24  32 MISG      29.94R
CHEYENNE       FAIR      54  36  50 SW6       29.92R
TORRINGTON     CLOUDY    57  43  59 S10       29.84R
PINE BLUFFS    FAIR      55  41  58 E9        29.90S

$$



USA.gov is the U.S. government's official web portal to all federal, state and local government web resources and services.